Location: Kermapucano
(48.0667°N, 3.3000°W)
Time: 20:13:42
(UTC+00:00)

Sich 1 - Pass Details

Date: 29 November 2020
Orbit: 594 x 625 km, 82.5° (Epoch: 27 January)

Event Time Altitude Azimuth Distance (km) Brightness Sun altitude
Rises 06:28:09 0° 187° (S) 2,894 6.7 -11.6°
Reaches altitude 10° 06:30:22 10° 188° (S) 1,994 5.8 -11.3°
Maximum altitude 06:34:47 89° 118° (ESE) 633 3.1 -10.6°
Drops below altitude 10° 06:39:16 10° 10° (N) 2,011 5.6 -9.9°
Sets 06:41:31 0° 10° (N) 2,921 6.4 -9.5°
